This demonstration page uses our WeatherBlox Daily Observations layout. Learn more.

Left ArrowRight Arrow

41.55636, -103.73856

Hourly Observations for July 14, 2015

Temp ( °F °C ) Dew Point ( °F °C ) Humidity (%) Winds ( mph kmh ) Pressure ( in mb ) Visibility ( mi km ) Precip ( " mm )
12:53 am 00:53 Clear with Light Rain 65 18.3 55 12.8 70 70 N 5 7 29.78 1008 10 16.0934 0 0.0254
1:53 am 01:53 Clear with Light Rain 64 17.8 56 13.3 75 75 NNE 5 7 29.78 1008 10 16.0934 0 0.0254
2:53 am 02:53 Clear with Light Rain 61 16.1 54 12.2 78 78 NW 9 15 29.77 1008 10 16.0934 0 0.0254
3:53 am 03:53 Clear with Light Rain 63 17.2 53 11.7 70 70 Calm 29.77 1008 10 16.0934 0 0.0254
4:53 am 04:53 Clear with Light Rain 60 15.6 54 12.2 80 80 E 3 6 29.79 1009 10 16.0934 0 0.0254
5:53 am 05:53 Sunny with Light Rain 60 15.6 54 12.2 80 80 NE 7 11 29.83 1010 10 16.0934 0 0.0254
6:53 am 06:53 Sunny with Light Rain 66 18.9 56 13.3 70 70 NW 5 7 29.84 1011 10 16.0934 0 0.0254
7:53 am 07:53 Sunny 70 21.1 56 13.3 61 61 S 3 6 29.85 1011 10 16.0934 0 0.0254
8:53 am 08:53 Sunny 74 23.3 57 13.9 56 56 SW 7 11 29.85 1011 10 16.0934 0 0
9:53 am 09:53 Sunny 80 26.7 55 12.8 42 42 W 12 19 29.83 1010 10 16.0934 0 0
10:53 am 10:53 Sunny 82 27.8 54 12.2 38 38 WNW 12 19 29.83 1010 10 16.0934 0 0
11:53 am 11:53 Sunny 84 28.9 56 13.3 38 38 WNW 9 15 29.84 1011 10 16.0934 0 0
12:53 pm 12:53 Sunny 87 30.6 55 12.8 34 34 NW 7 11 29.84 1011 10 16.0934 0 0
1:53 pm 13:53 Sunny 91 32.8 53 11.7 27 27 WNW 12 19 29.81 1010 10 16.0934 0 0
2:53 pm 14:53 Sunny 92 33.3 50 10 24 24 N 8 13 29.81 1009 10 16.0934 0 0
3:53 pm 15:53 Sunny 90 32.2 52 11.1 27 27 N 7 11 29.79 1009 10 16.0934 0 0
4:53 pm 16:53 Sunny 91 32.8 56 13.3 31 31 N 9 15 29.78 1009 10 16.0934 0 0
5:53 pm 17:53 Sunny 87 30.6 59 15 39 39 NE 7 11 29.79 1009 10 16.0934 0 0
6:53 pm 18:53 Sunny 86 30 61 16.1 43 43 NNE 5 7 29.78 1009 10 16.0934 0 0
7:53 pm 19:53 Sunny 81 27.2 63 17.2 54 54 NNW 5 7 29.8 1009 10 16.0934 0 0
8:53 pm 20:53 Mostly Clear 78 25.6 52 11.1 40 40 SW 18 30 29.81 1010 10 16.0934 0 0
9:53 pm 21:53 Clear 75 23.9 53 11.7 46 46 ESE 7 11 29.83 1010 10 16.0934 0 0
10:53 pm 22:53 Mostly Clear 73 22.8 55 12.8 53 53 ESE 9 15 29.85 1011 10 16.0934 0 0
11:53 pm 23:53 Clear 72 22.2 55 12.8 55 55 SSW 8 13 29.84 1011 10 16.0934 0 0

Powered by AerisWeather